METEOR 2-8 DEB

Satellite information

Favourite Embed

Satellite Type and Status

DEBRISIN ORBIT

Key statistics

Satellite METEOR 2-8 DEB at a glance.

Uptime

15915

Days in orbit

Revolutions

≈ 14.3

Per day

Orbit

LEO

Low Earth Orbit

Inclination

82.5

Latest

Satellite identification and parameters

Extended collection of information and parameters for METEOR 2-8 DEB.

Object identification

Identified? True

Debris? True

Object name: METEOR 2-8 DEB

International designator: 1982-025D

Object number (NORAD): 36319

Object ID (CCSDS): 36319

Country: COMMONWEALTH OF INDEPENDENT STATES (CIS)

Current information (Y/N): Y

RCS size: SMALL

Orbital parameters

Period: 100.566 minutes

Inclination: 82.5237 deg

SMA: 7163.536 km

Apoapsis: 798.87 km

Periapsis: 771.933 km

RAAN: 23.9054 deg

Eccentricy: 0.0018801

Argument of periapsis: 44.0611 deg

Mean anomaly: 316.207 deg

Mean motion: 14.31896233 rev/day

Mean motion (dot): 0.00008937 rev/day2

B* drag term: 0.0033242 1/REarth

Two-line elements (TLE)

Creation date: Oct. 7, 2025, 11:16 p.m.

Reference frame: TEME

Reference center: EARTH

Epoch: Oct. 7, 2025, 2:29 p.m. UTC

TLE line 0: 0 METEOR 2-8 DEB

TLE line 1: 1 36319U 82025D 25280.60414348 .00008937 00000-0 33242-2 0 9999

TLE line 2: 2 36319 82.5237 23.9054 0018801 44.0611 316.2070 14.31896233157886

Live tracking on map

Real-time ground track for satellite METEOR 2-8 DEB.

In-orbit conjunctions

A list of the most updated potential collisions computed for object METEOR 2-8 DEB.

Target Orbit TCA Probability of collision Miss distance Type
HEALTHSAT 1 SSO 2025-10-11 22:10:52 0.0001053726 598.0 (m) PAYLOAD
OSCAR 18 (WEBERSAT) SSO 2025-01-21 04:23:51 0.0002943764 565.0 (m) PAYLOAD
FENGYUN 1C DEB SSO 2024-11-13 03:49:10 0.0003055244 543.0 (m) DEBRIS
COSMOS 2251 DEB LEO 2024-08-15 17:43:18 0.0001311726 258.0 (m) DEBRIS

Associated space launch

Second generation soviet meteorological satellite

METEOR 2-8 DEB was lifted into orbit during the mission ‘Tsiklon-3 | Meteor-2 8’, on board a Tsiklon-3 space rocket.

The launch took place on March 25, 1982, 9:50 a.m. from 32/1.

For more information about the launch, click the button.

Launch to space Tsiklon-3 | Meteor-2 8
Tsiklon-3 | Meteor-2 8

Agency: N/A

Status: Launch Successful

Launch date: March 25, 1982, 9:50 a.m. UTC

Rocket: Tsiklon-3

Launch pad: 32/1

Location: Plesetsk Cosmodrome, Russian Federation

...

Latest news about this satellite

There are no fresh news available about this satellite. Check back as we update our databases every day.


Newsletter sign-up

Weekly statistics, charts and insights to help you stay on top of the space industry.